Location: Newark
(34.6000°S, 58.3833°W)
Time: 12:11:44
(UTC+00:00)

N. Korean satellite - Pass Details

Date: 27 October 2019
Orbit: 456 x 506 km, 97.2° (Epoch: 14 November)

Event Time Altitude Azimuth Distance (km) Brightness Sun altitude
Rises 08:26:38 0° 37° (NE) 2,599 10.5 -6.8°
Reaches altitude 10° 08:28:55 10° 49° (NE) 1,720 9.8 -6.4°
Maximum altitude 08:32:05 27° 107° (ESE) 1,008 9.3 -5.8°
Drops below altitude 10° 08:35:15 10° 165° (SSE) 1,726 9.9 -5.2°
Sets 08:37:33 0° 177° (S) 2,611 10.6 -4.7°
